Location: Oriwa
(40.7500°S, 175.3333°E)
Time: 10:37:08
(UTC+00:00)

BREEZE-M DEB (TANK) - Pass Details

Date: 03 February 2023
Orbit: 320 x 11946 km, 49.7° (Epoch: 19 March)

Event Time Altitude Azimuth Distance (km) Brightness Sun altitude
Exits shadow 13:48:40 33° 63° (ENE) 1,677 4.4 -30.1°
Maximum altitude 13:48:41 33° 63° (ENE) 1,680 4.4 -30.1°
Drops below altitude 10° 13:58:56 10° 121° (ESE) 5,410 7.8 -29.3°
Sets 14:06:54 0° 126° (SE) 8,302 9.0 -28.7°
